Tracking 35280 objects as of 7-Sep-2026
HD Live streaming from Space Station
objects crossing your sky now

STARLINK-35813

Track STARLINK-35813 now!
10-day predictions
STARLINK-35813 is classified as:


NORAD ID: 66361
Int'l Code: 2025-254P
Launch date: November 6, 2025
Source: United States (US)
Launch site: AIR FORCE WESTERN TEST RANGE (AFWTR)
Your satellite tracking list
Your tracking list is empty




NASA's NSSDC Master Catalog

Two Line Element Set (TLE):
1 66361U 25254P   26250.30562405  .00012062  00000-0  39966-3 0  9997
2 66361  53.1583 107.3207 0001188  92.8687 267.2450 15.31712474 46806
Source of the keplerian elements: AFSPC